[[{"header":{"parameterUnit":"m.s-1","parameterCategory":1,"la1":30.2991,"la2":30.254,"lo1":-89.0895,"lo2":-89.0444,"dy":0.0017,"dx":0.0017,"nx":28,"ny":28,"refTime":"2025-04-29T21:00:00:Z","depth":0,"parameterNumber":2,"parameterNumberName":"U-component_of_WINDS"},"data":[0,0,0,0,0,0,0,0,0,0,0,0,0,0,0,0,0,0,0,0,0,0,0,0,0,0,0,0,0,0,0,0,0,0,0,0,0,0,0,0,0,0,0,0,0,0,0,0,0,0,0,0,0,0,0,0,0,0,-0.9891,-0.989,0,-0.9757,-0.9755,-0.9754,-0.9678,-0.9678,-0.9677,-0.9677,-0.9539,-0.9536,-0.9533,0,0,0,0,0,0,0,0,0,0,0,0,0,-1.0084,-1.0081,-0.9891,-0.989,-0.9888,-0.9757,-0.9755,-0.9753,-0.9678,-0.9678,-0.9677,-0.9677,-0.954,-0.9536,-0.9532,0,0,0,0,0,0,0,0,0,0,0,0,0,-0.998,-1.008,-0.9892,-0.9835,-0.9828,-0.9757,-0.9755,-0.9753,-0.9678,-0.9678,-0.9677,-0.9677,-0.9542,-0.9537,-0.9532,-0.9507,0,0,-0.9516,-0.9514,0,0,0,0,0,0,0,0,-0.9986,-0.9973,-0.9845,-0.9838,-0.9831,-0.9734,-0.9772,-0.967,-0.9678,-0.9735,-0.9677,-0.9677,-0.9604,-0.9594,-0.957,-0.9501,-0.9495,-0.9515,-0.9512,-0.951,-0.9509,0,0,0,0,0,0,0,-0.9993,-0.9978,-0.9838,-0.9843,-0.9835,-0.9816,-0.9801,-0.9753,-0.9673,-0.973,-0.9724,-0.9709,-0.96,-0.9575,-0.9566,-0.9493,-0.9516,-0.9511,-0.9508,-0.9506,-0.9398,-0.9398,0,0,0,0,0,0,-1.0009,-0.9985,-0.9842,-0.9834,-0.9909,-0.9813,-0.9796,-0.9765,-0.9674,-0.9659,-0.971,-0.9706,-0.9584,-0.9572,-0.9561,-0.9526,-0.951,-0.9505,-0.9502,-0.9398,-0.9398,-0.9398,0,0,0,0,0,0,-1.0014,-0.9997,-0.9848,-0.9908,-0.9887,-0.981,-0.9776,-0.9763,-0.9737,-0.9658,-0.9644,-0.9698,-0.9583,-0.9568,-0.9521,-0.952,-0.9503,-0.9498,-0.9397,-0.9398,-0.9398,-0.9457,0,0,0,0,0,0,-1.002,-0.9999,-0.9989,-0.9908,-0.9884,-0.981,-0.9776,-0.976,-0.9728,-0.9722,-0.9643,-0.963,-0.9582,-0.9529,-0.9516,-0.9513,-0.9494,-0.9397,-0.9397,-0.9398,-0.9454,-0.9459,-0.9463,0,0,0,0,0,-1.0027,-1.0011,-0.9989,-0.9972,-0.987,-0.981,-0.9797,-0.9741,-0.9728,-0.9717,-0.9667,-0.9632,-0.9523,-0.9525,-0.951,-0.9505,-0.9397,-0.9397,-0.9398,-0.9452,-0.9458,-0.9463,0,0,0,0,0,0,-1.0093,-0.9999,-0.9974,-0.9931,-0.9879,-0.9798,-0.9782,-0.9749,-0.97,-0.9697,-0.963,-0.9613,-0.9573,-0.9534,-0.9538,-0.9476,-0.9456,-0.9454,-0.9503,-0.9507,-0.9512,-0.9521,-0.949,0,0,0,0,0,-1.0103,-1.0063,-0.9983,-0.9953,-0.9928,-0.986,-0.9832,-0.9794,-0.9738,-0.9716,-0.9662,-0.9609,-0.9562,-0.9533,-0.9486,-0.9449,-0.9431,-0.9438,-0.9442,-0.9446,-0.9444,-0.9422,-0.9425,-0.94,-0.94,-0.94,0,0,-1.0123,-1.0066,-1.0045,-0.9965,-0.992,-0.988,-0.9842,-0.9801,-0.9771,-0.9709,-0.9662,-0.9621,-0.9557,-0.9516,-0.9495,-0.9482,-0.9447,-0.9447,-0.945,-0.9446,-0.9423,-0.9426,-0.9428,-0.94,-0.94,-0.94,0,0,-1.0137,-1.0091,-1.0061,-1.0017,-0.9951,-0.9906,-0.9899,-0.9822,-0.9793,-0.9744,-0.9698,-0.9661,-0.9582,-0.9539,-0.9507,-0.9507,-0.9473,-0.9494,-0.9515,-0.9495,-0.9497,-0.9498,-0.9498,-0.9499,-0.9493,-0.9493,-0.9493,0,-1.017,-1.0107,-1.0049,-1.0011,-0.9978,-0.9921,-0.989,-0.9851,-0.9773,-0.9751,-0.9738,-0.9639,-0.9592,-0.954,-0.954,-0.9516,-0.9506,-0.9502,-0.9501,-0.9502,-0.9502,-0.9502,-0.9502,-0.9496,-0.9495,-0.9495,-0.9495,0,-1.0151,-1.0109,-1.0092,-1.0018,-0.9983,-0.9949,-0.9886,-0.9857,-0.9823,-0.978,-0.9732,-0.9674,-0.9614,-0.9599,-0.9565,-0.9542,-0.9537,-0.9514,-0.9492,-0.9509,-0.9507,-0.9506,-0.95,-0.9499,-0.9498,-0.9497,0,0,-1.0202,-1.0098,-1.0093,-1.0059,-0.9982,-0.9948,-0.9912,-0.9854,-0.983,-0.9779,-0.9747,-0.9682,-0.9661,-0.9624,-0.9585,-0.9567,-0.9572,-0.9546,-0.9544,-0.9553,-0.9543,-0.9561,-0.9561,-0.9549,-0.9549,-0.9549,-0.9548,0,-1.0206,-1.0138,-1.0085,-1.0037,-0.9997,-0.9944,-0.9912,-0.9862,-0.9821,-0.9782,-0.9736,-0.9692,-0.9667,-0.9644,-0.9624,-0.9575,-0.9569,-0.9575,-0.9519,-0.9517,-0.9536,-0.956,-0.9578,-0.958,-0.9547,-0.9547,-0.9547,0,-1.02,-1.0151,-1.0099,-1.0027,-1.0008,-0.9981,-0.9924,-0.9887,-0.9829,-0.9801,-0.9761,-0.9721,-0.968,-0.9664,-0.9607,-0.9613,-0.9587,-0.956,-0.9559,-0.955,-0.9533,-0.9552,-0.958,-0.958,-0.9545,-0.9545,-0.9546,0,-1.0243,-1.0164,-1.0122,-1.0095,-1.001,-0.9992,-0.9956,-0.9897,-0.9866,-0.9817,-0.9796,-0.9743,-0.9713,-0.9673,-0.962,-0.9612,-0.9569,-0.9548,-0.9545,-0.9546,-0.9537,-0.9538,-0.956,-0.9522,-0.9522,-0.9522,-0.9522,0,-1.0252,-1.0222,-1.014,-1.0115,-1.008,-1.0021,-0.9988,-0.9948,-0.9897,-0.9863,-0.9813,-0.9783,-0.9714,-0.9675,-0.9633,-0.9594,-0.9581,-0.9557,-0.9546,-0.956,-0.9564,-0.9542,-0.954,-0.9522,-0.9522,-0.9522,-0.9522,0,-1.0293,-1.0237,-1.0189,-1.0112,-1.0093,-1.0071,-1.0005,-0.9979,-0.9936,-0.9894,-0.988,-0.9813,-0.9764,-0.9707,-0.9641,-0.9612,-0.9576,-0.956,-0.9596,-0.9589,-0.9589,-0.959,-0.9597,-0.9595,-0.956,-0.956,-0.956,0,-1.0302,-1.0278,-1.02,-1.0174,-1.0139,-1.0097,-1.0065,-1.0006,-0.9975,-0.9908,-0.989,-0.9838,-0.9793,-0.9719,-0.9664,-0.9613,-0.9595,-0.9601,-0.9587,-0.9603,-0.9595,-0.9597,-0.9594,-0.9605,-0.9606,-0.9606,-0.9607,0,-1.0325,-1.0298,-1.0254,-1.02,-1.0164,-1.0119,-1.0071,-1.0053,-0.9984,-0.9952,-0.9902,-0.9868,-0.98,-0.9749,-0.9692,-0.9654,-0.9619,-0.9612,-0.9608,-0.9623,-0.9644,-0.9633,-0.9606,-0.9612,-0.9611,-0.9611,-0.9611,-0.961,-1.035,-1.0326,-1.0267,-1.022,-1.0178,-1.0136,-1.0107,-1.0061,-1.0018,-0.9958,-0.9926,-0.9878,-0.9821,-0.974,-0.9704,-0.9665,-0.9653,-0.9648,-0.9647,-0.9646,-0.9651,-0.9652,-0.9655,-0.9655,-0.9654,-0.9654,-0.9654,0,-1.0369,-1.0329,-1.0286,-1.0222,-1.0185,-1.0155,-1.0102,-1.0073,-1.0031,-0.9981,-0.9938,-0.9882,-0.9832,-0.9774,-0.9721,-0.9702,-0.9684,-0.969,-0.969,-0.9682,-0.9665,-0.9673,-0.9705,-0.9705,-0.9705,-0.9705,-0.9705,-0.9705,-1.0375,-1.0333,-1.03,-1.0238,-1.0198,-1.0149,-1.0121,-1.0082,-1.0042,-0.9981,-0.994,-0.9903,-0.985,-0.9793,-0.9747,-0.9731,-0.9713,-0.9724,-0.9703,-0.9688,-0.9683,-0.9679,-0.9686,-0.9721,-0.9721,-0.9724,-0.9724,-0.9724]},{"header":{"parameterUnit":"m.s-1","parameterCategory":1,"la1":30.2991,"la2":30.254,"lo1":-89.0895,"lo2":-89.0444,"dy":0.0017,"dx":0.0017,"nx":28,"ny":28,"refTime":"2025-04-29T21:00:00:Z","depth":0,"parameterNumber":3,"parameterNumberName":"V-component_of_WINDS"},"data":[0,0,0,0,0,0,0,0,0,0,0,0,0,0,0,0,0,0,0,0,0,0,0,0,0,0,0,0,0,0,0,0,0,0,0,0,0,0,0,0,0,0,0,0,0,0,0,0,0,0,0,0,0,0,0,0,0,0,5.9704,5.9704,0,5.974,5.974,5.974,5.9712,5.9711,5.9709,5.9708,5.9741,5.9743,5.9745,0,0,0,0,0,0,0,0,0,0,0,0,0,5.9605,5.9607,5.9704,5.9704,5.9705,5.974,5.974,5.9741,5.9712,5.9711,5.9709,5.9708,5.974,5.9743,5.9745,0,0,0,0,0,0,0,0,0,0,0,0,0,5.9645,5.9608,5.9704,5.9695,5.9694,5.974,5.974,5.9741,5.9712,5.971,5.9709,5.9707,5.974,5.9743,5.9746,5.98,0,0,5.9755,5.9756,0,0,0,0,0,0,0,0,5.9643,5.9649,5.9695,5.9695,5.9695,5.9719,5.9717,5.9761,5.9713,5.9705,5.9708,5.9706,5.9735,5.9738,5.9749,5.9802,5.9803,5.9755,5.9757,5.9758,5.9759,0,0,0,0,0,0,0,5.964,5.9647,5.9718,5.9696,5.9696,5.9687,5.9691,5.9726,5.973,5.9706,5.9704,5.9709,5.9735,5.9746,5.975,5.9804,5.9755,5.9758,5.9759,5.9761,5.9903,5.9905,0,0,0,0,0,0,5.9639,5.9645,5.9717,5.9719,5.9664,5.969,5.9695,5.9713,5.9729,5.973,5.971,5.9707,5.9742,5.9746,5.9751,5.9816,5.9758,5.9761,5.9763,5.9901,5.9903,5.9905,0,0,0,0,0,0,5.9637,5.9646,5.9715,5.9681,5.969,5.9694,5.9715,5.9715,5.9727,5.9733,5.9733,5.9722,5.9741,5.9746,5.9788,5.9816,5.9762,5.9765,5.9899,5.9902,5.9904,5.9947,0,0,0,0,0,0,5.9634,5.9645,5.9667,5.9682,5.9692,5.9754,5.9717,5.9717,5.9732,5.9729,5.9744,5.9744,5.974,5.9784,5.9791,5.982,5.9767,5.9896,5.99,5.9903,5.9943,5.9951,5.9958,0,0,0,0,0,5.9631,5.9677,5.9669,5.9677,5.972,5.9756,5.9761,5.9756,5.9735,5.9756,5.976,5.9744,5.9812,5.9789,5.9797,5.9826,5.9894,5.9899,5.9903,5.9939,5.9949,5.9957,0,0,0,0,0,0,5.9664,5.9679,5.967,5.9722,5.9738,5.9751,5.9778,5.9766,5.9787,5.9783,5.9775,5.9778,5.9822,5.9828,5.9802,5.988,5.985,5.9856,5.9875,5.9884,5.9891,5.9889,5.977,0,0,0,0,0,5.9677,5.9707,5.9718,5.9763,5.9771,5.9773,5.9789,5.9784,5.9799,5.9805,5.9812,5.9827,5.9851,5.9868,5.9891,5.9943,5.9946,5.9967,5.9975,5.9981,5.9986,6.0014,6.0024,5.992,5.992,5.992,0,0,5.9705,5.9717,5.9736,5.977,5.9781,5.9811,5.9779,5.9811,5.9833,5.981,5.985,5.9856,5.9871,5.9919,5.994,5.9925,6.0015,5.9986,5.9991,5.9993,6.002,6.0029,6.0038,5.9923,5.9922,5.9922,0,0,5.9771,5.9784,5.9823,5.9835,5.9854,5.9854,5.9864,5.9878,5.9881,5.9922,5.9905,5.993,5.9973,5.9984,5.9996,6.0066,6.0051,6.0073,6.0112,6.0139,6.0147,6.0154,6.0179,6.0188,6.0079,6.0079,6.0079,0,5.9803,5.9849,5.9843,5.9878,5.9892,5.9874,5.9913,5.9924,5.9949,5.9959,5.9942,5.9996,6.0004,6.0054,6.0071,6.0081,6.0091,6.0072,6.0147,6.0154,6.016,6.0184,6.0193,6.0081,6.0081,6.0081,6.0081,0,5.9887,5.9918,5.9947,5.9973,5.9991,6.0027,6.0026,6.0044,6.0037,6.004,6.0081,6.0091,6.0116,6.0127,6.012,6.0176,6.0166,6.0148,6.0118,6.0173,6.0195,6.0204,6.0085,6.0084,6.0083,6.0083,0,0,5.9975,5.9998,6.0008,6.002,6.0038,6.0062,6.0096,6.0122,6.0138,6.0155,6.0183,6.0219,6.0203,6.0216,6.021,6.0234,6.0288,6.0213,6.0213,6.0226,6.035,6.0363,6.0374,6.0279,6.028,6.0282,6.0348,0,6.0042,6.0104,6.01,6.0158,6.0186,6.0169,6.0199,6.0213,6.0215,6.0239,6.0241,6.0267,6.0243,6.0251,6.0274,6.0277,6.0313,6.0272,6.0304,6.0305,6.0301,6.0385,6.04,6.0462,6.0357,6.0358,6.0359,0,6.0129,6.015,6.0211,6.0226,6.0237,6.0265,6.0287,6.031,6.0325,6.0325,6.034,6.033,6.0363,6.0332,6.0377,6.0349,6.0362,6.0365,6.0367,6.037,6.0336,6.0391,6.0482,6.0492,6.0373,6.0372,6.0371,0,6.0187,6.0231,6.0273,6.0283,6.0301,6.0321,6.0328,6.0342,6.0357,6.0376,6.0386,6.0408,6.0421,6.0438,6.0433,6.0411,6.0479,6.0448,6.048,6.048,6.0495,6.0495,6.0591,6.0503,6.0503,6.0503,6.0503,0,6.0262,6.03,6.03,6.0326,6.0367,6.0362,6.0402,6.0408,6.042,6.0445,6.0431,6.0455,6.0447,6.0471,6.0467,6.0505,6.0511,6.0511,6.051,6.0513,6.0513,6.0521,6.0516,6.0505,6.0505,6.0504,6.0504,0,6.0335,6.0336,6.0381,6.0394,6.0398,6.0428,6.0439,6.0463,6.0464,6.0497,6.0504,6.0506,6.0532,6.053,6.0559,6.0557,6.0604,6.0597,6.0599,6.0598,6.063,6.0627,6.0735,6.0749,6.0652,6.0653,6.0654,0,6.0383,6.0412,6.0429,6.0446,6.0455,6.0482,6.0498,6.0493,6.051,6.0529,6.055,6.0576,6.0596,6.0639,6.0642,6.0664,6.0658,6.0694,6.0661,6.0663,6.0659,6.0657,6.066,6.0701,6.0702,6.0703,6.0704,0,6.0468,6.0468,6.0492,6.0517,6.0537,6.0555,6.0572,6.0586,6.0583,6.0602,6.063,6.0646,6.0676,6.0701,6.0723,6.0729,6.0716,6.0714,6.0723,6.0726,6.0727,6.0727,6.0617,6.0712,6.0711,6.071,6.071,6.071,6.053,6.0555,6.0571,6.0598,6.0611,6.0627,6.065,6.0655,6.0678,6.0704,6.0699,6.073,6.0743,6.077,6.0779,6.0802,6.0789,6.0801,6.0804,6.0807,6.0811,6.0723,6.0806,6.0805,6.0805,6.0805,6.0805,0,6.0615,6.0625,6.065,6.0675,6.0696,6.0683,6.0701,6.0719,6.0747,6.0761,6.0781,6.0813,6.0837,6.0842,6.0865,6.0883,6.0877,6.0889,6.0888,6.0889,6.0822,6.0812,6.0893,6.0893,6.0893,6.0893,6.0893,6.0893,6.0662,6.0703,6.0704,6.0751,6.076,6.0791,6.0803,6.0817,6.0828,6.0865,6.0885,6.0889,6.0899,6.0922,6.0943,6.0944,6.0953,6.0967,6.0966,6.0903,6.0894,6.0886,6.0877,6.0969,6.0969,6.1031,6.1032,6.1032]}]]